Temp
19 20 19 19 19 19 19 19 19 19 20 20 20 21 21 21 21 21 21 20 20 20 20 20 20 20 20 20 20 19 20 20 20 20 20 20 19 19 19 19 19 19 19
19 20 19 19 19 19 18 19 19 19 19 20 20 21 20 20 20 20 20 20 20 20 20 20 20 20 20 20 20 20 20 20 20 20 20 19 19 20 20 20 19 19 19
18 19 19 19 19 19 19 19 18 18 19 19 20 20 20 20 20 20 20 20 20 20 19 19 19 20 19 19 20 20 20 20 20 20 20 19 19 19 19 19 20 19 19
18 18 19 19 19 19 19 19 18 18 19 19 19 19 19 19 19 19 19 19 19 19 19 19 20 20 19 19 19 20 20 20 20 20 19 19 19 19 19 19 19 19 19
17 18 18 18 19 19 19 19 19 19 19 19 19 19 19 19 19 19 19 19 19 19 19 19 19 19 19 19 19 19 20 20 20 20 19 19 19 19 19 19 19 19 19
14 16 17 17 17 19 19 19 19 20 19 19 19 19 19 18 18 19 19 19 19 19 19 19 19 19 19 19 19 19 19 20 20 19 20 19 19 19 19 19 19 19 19
9 13 15 17 17 17 18 19 19 19 19 19 19 19 19 19 19 19 19 19 19 19 19 19 19 19 19 19 19 19 19 19 19 19 19 19 19 19 19 19 19 19 19
6 10 12 14 16 17 17 17 18 19 19 19 19 19 19 19 19 19 19 19 19 19 19 19 19 19 19 19 19 19 19 19 19 19 19 19 19 19 19 19 19 19 19
5 9 10 11 13 15 16 17 17 18 19 18 18 19 19 19 19 18 18 18 19 19 19 19 19 19 18 18 18 19 19 19 19 19 19 19 19 19 18 19 19 19 19
5 6 7 9 10 12 14 16 17 17 18 18 18 19 19 18 18 18 18 18 18 18 19 18 18 18 18 18 18 19 19 18 18 18 18 19 19 19 18 19 19 19 18
2 2 4 7 8 9 12 14 15 16 17 18 18 18 18 18 18 18 18 18 18 18 18 18 18 18 18 18 18 19 19 18 18 18 18 19 19 19 19 19 19 18 18
-3 -1 1 3 5 6 8 11 13 14 15 17 17 17 18 18 17 17 17 17 17 17 18 17 17 17 18 18 18 18 18 18 18 18 18 19 19 19 19 19 19 18 18
-4 -4 -2 -0 2 4 5 7 10 12 14 15 16 17 17 18 17 17 17 17 17 17 17 17 17 18 17 17 18 18 18 18 18 19 18 19 19 19 18 18 18 18 17
-5 -5 -5 -2 -1 1 3 5 7 9 12 14 14 16 17 18 17 17 16 16 16 16 17 17 17 17 17 17 17 17 17 18 18 19 19 19 18 19 18 18 18 17 17
-6 -6 -6 -5 -4 -1 1 4 5 7 9 11 14 15 17 17 17 16 16 16 16 16 16 16 16 16 16 15 16 16 16 16 17 18 19 18 18 18 17 18 17 16 16
-7 -7 -7 -7 -6 -4 -1 2 2 6 7 10 12 13 15 16 16 16 16 16 16 16 16 15 15 15 16 15 15 15 16 15 15 17 18 18 18 18 19 16 16 16 16
-8 -8 -8 -7 -7 -5 -4 -2 3 5 5 7 9 12 13 15 15 15 16 15 15 15 15 14 15 15 15 15 15 15 15 15 15 16 16 17 17 17 18 18 15 15 15
-9 -9 -9 -8 -8 -6 -5 -4 -1 2 3 3 7 10 12 14 15 14 15 15 14 14 14 14 14 14 15 15 14 14 14 15 15 16 16 16 16 16 17 17 16 15 15
-9 -10 -10 -9 -8 -7 -7 -6 -4 -1 3 3 5 8 9 12 14 14 15 15 14 14 14 14 14 14 14 13 13 12 13 14 14 15 16 16 15 15 15 16 15 15 15
-10 -10 -10 -10 -9 -9 -9 -8 -6 -5 -0 1 2 4 5 9 11 13 15 15 14 14 13 13 14 13 13 13 11 10 9 10 12 14 14 15 15 15 15 15 14 14 14
-11 -11 -11 -11 -11 -11 -10 -10 -9 -8 -5 -1 0 0 3 6 8 11 12 14 15 14 13 13 13 13 9 10 10 7 7 7 8 10 11 11 12 14 14 14 13 13 13
-12 -12 -12 -12 -11 -11 -12 -11 -11 -9 -7 -5 -3 0 2 3 5 9 11 12 14 13 12 12 12 9 8 9 9 9 8 8 6 7 7 9 11 13 13 13 13 12 12
-12 -13 -13 -13 -12 -12 -11 -11 -11 -9 -8 -6 -4 -1 -1 1 2 5 9 11 13 12 12 12 12 11 9 9 9 10 8 8 5 5 6 8 9 11 11 11 11 11 11
-13 -13 -12 -12 -12 -12 -11 -13 -13 -12 -11 -10 -10 -8 -4 -2 1 3 7 10 12 12 12 12 11 11 10 9 9 10 10 11 7 6 5 7 8 9 10 10 10 10 11
-14 -14 -13 -12 -12 -12 -12 -13 -13 -13 -12 -11 -10 -10 -7 -4 0 2 3 9 11 12 11 11 10 9 10 10 10 9 9 9 9 8 5 5 7 7 9 10 10 10 10
-14 -14 -14 -13 -12 -13 -12 -12 -13 -13 -13 -12 -11 -11 -9 -7 -3 -1 -0 5 9 11 11 11 10 9 9 9 9 9 9 10 8 8 7 5 4 5 7 8 9 9 9
Height
790 791 793 795 798 800 801 803 804 806 807 808 809 811 813 813 815 815 816 816 817 818 819 821 822 822 823 823 825 826 826 828 829 830 831 832 832 833 834 836 837 838 838
796 793 794 796 798 800 802 803 805 807 808 809 810 811 813 814 815 816 816 817 818 819 820 821 822 823 824 824 826 826 827 828 829 831 833 833 834 834 836 837 838 839 839
806 800 798 798 799 801 803 805 806 808 809 810 812 812 813 814 815 816 817 818 819 819 821 822 823 823 824 824 826 827 828 829 829 831 833 834 836 836 837 838 839 840 842
810 810 805 805 805 805 807 808 809 810 812 812 813 813 814 815 816 816 818 819 819 820 821 822 824 824 825 825 826 827 828 829 830 830 833 835 838 838 838 839 841 841 843
811 811 813 811 810 809 808 809 811 812 813 813 815 815 815 815 815 817 817 818 820 820 821 822 824 823 825 825 827 828 829 830 830 831 833 835 837 839 839 841 843 842 844
810 809 809 811 814 814 813 813 812 811 812 813 814 815 816 816 816 816 818 818 819 819 821 822 823 823 824 825 826 827 828 830 830 831 832 834 836 838 840 841 844 842 844
816 811 809 809 810 812 816 815 816 815 815 815 815 815 815 816 817 816 817 818 818 820 821 822 822 822 824 825 826 826 827 829 829 831 832 833 835 838 840 841 845 844 845
822 816 813 810 810 810 810 810 815 815 814 814 814 815 815 815 816 816 817 817 817 819 820 820 820 821 823 825 825 825 827 828 828 829 831 833 834 836 839 841 843 845 847
826 819 816 814 812 810 810 809 809 814 813 813 812 814 814 814 815 815 816 816 817 817 819 819 819 820 822 824 825 825 826 827 828 828 830 831 834 836 838 840 842 844 847
827 824 820 818 815 812 810 809 809 810 812 811 811 811 812 813 814 814 814 816 815 817 817 818 819 819 821 822 824 825 826 827 827 828 830 831 833 835 837 839 842 843 847
829 828 825 821 819 816 811 809 808 808 809 810 809 810 810 811 814 814 813 814 814 815 816 817 818 819 820 821 823 824 826 826 826 827 830 832 832 835 836 839 841 843 845
837 833 831 826 823 820 816 812 809 808 808 809 809 809 809 810 812 813 813 813 813 814 814 816 817 818 819 821 821 823 825 825 826 827 829 830 831 833 835 836 839 842 844
854 845 837 832 828 823 818 814 810 808 807 807 808 807 808 809 811 812 812 812 812 812 813 814 816 816 817 819 820 822 823 823 825 825 827 828 830 831 832 833 834 837 842
855 851 843 835 831 827 822 817 813 809 806 805 807 807 806 807 810 810 809 810 810 810 811 812 813 814 815 816 818 820 821 821 823 823 824 826 829 831 835 837 838 832 836
858 852 846 840 834 827 822 819 814 809 806 803 803 804 804 804 806 807 807 807 807 808 808 809 811 812 813 815 816 818 819 819 820 821 823 825 827 830 835 833 785 834 836
863 856 849 843 838 831 823 818 815 808 805 802 801 802 801 801 802 802 803 804 804 805 805 806 808 810 812 813 814 816 816 817 818 819 821 823 824 827 829 827 807 827 838
869 862 853 845 839 832 825 818 813 807 804 802 799 799 798 797 798 798 798 799 801 801 802 804 806 807 809 811 811 814 815 815 816 816 818 820 822 825 826 826 837 837 841
873 865 858 850 842 833 826 820 813 810 805 801 797 795 794 792 793 794 794 796 798 798 799 801 802 804 806 808 808 811 812 813 815 814 816 818 819 824 827 830 839 844 845
875 867 860 852 844 835 828 821 814 809 805 802 797 792 790 790 787 789 791 792 794 794 795 796 799 801 802 805 806 808 810 811 813 812 814 816 816 820 825 831 837 839 844
878 870 863 855 847 839 831 821 814 810 805 801 797 788 788 786 786 783 785 787 789 790 792 792 794 798 801 802 804 809 808 808 810 809 812 813 812 816 822 827 834 840 847
877 871 864 856 849 842 832 825 814 806 799 794 791 792 784 783 781 782 782 782 784 785 787 790 792 794 798 800 801 810 813 813 810 809 811 815 807 812 820 826 833 841 851
879 872 866 860 852 846 840 834 829 817 805 799 793 788 784 780 778 776 779 778 778 780 781 782 785 790 793 797 800 804 815 819 814 813 815 812 805 810 820 827 833 842 851
880 873 868 861 855 848 842 833 827 818 807 799 787 783 781 779 776 773 770 774 773 775 775 777 780 784 788 794 797 794 809 814 820 823 819 804 813 815 824 831 836 844 852
882 876 869 863 856 849 842 836 831 825 815 806 798 791 784 779 772 769 767 769 768 769 770 772 775 778 781 787 791 791 793 794 808 826 821 814 816 823 827 835 841 849 854
881 876 869 862 856 850 844 839 833 827 820 809 799 792 786 776 773 768 766 763 762 762 764 766 769 774 777 778 783 790 794 793 799 804 820 829 828 833 835 841 847 852 858
881 875 868 861 855 850 844 838 833 827 819 808 800 794 785 775 768 764 759 753 758 754 757 760 763 767 771 774 777 782 781 784 796 799 811 825 832 842 844 847 850 855 859
Wind_Speed
12 19 18 16 15 15 15 15 14 14 15 14 14 13 13 13 12 10 9 8 8 6 6 7 8 8 7 6 8 8 10 10 10 11 11 12 13 16 19 20 19 18 20
7 18 17 16 15 15 14 14 14 15 14 14 14 13 12 11 11 10 9 9 8 9 7 8 7 7 7 7 7 8 9 10 10 9 10 13 14 15 19 19 20 18 21
14 14 16 16 15 15 14 14 13 14 14 13 12 12 12 11 10 9 9 8 8 8 7 6 7 7 7 6 7 8 9 10 11 9 9 12 12 16 18 20 21 21 20
15 7 10 9 10 11 11 11 11 11 12 12 11 12 11 10 9 8 8 8 8 9 8 8 7 7 7 6 7 8 9 10 11 12 12 13 13 16 18 19 20 21 24
19 4 3 6 7 9 10 11 10 11 11 11 11 11 11 10 9 9 8 8 9 11 10 8 8 8 8 7 8 9 10 10 10 12 13 15 14 16 17 19 19 22 23
28 14 6 8 10 8 8 9 11 12 12 11 10 10 9 9 8 8 8 9 9 10 11 9 10 8 8 8 8 9 11 11 11 12 14 17 16 17 18 19 20 22 23
35 29 21 6 6 6 10 9 10 12 12 11 10 9 8 8 8 9 10 10 10 10 11 12 10 9 9 9 9 9 11 13 14 14 14 18 18 19 19 20 20 23 23
38 34 31 22 11 6 5 7 12 14 16 15 13 11 10 9 9 9 10 12 11 11 12 12 11 10 10 10 10 11 12 13 15 15 16 18 19 18 20 21 21 22 23
38 37 36 33 27 15 9 9 12 17 18 17 16 14 12 10 9 9 10 10 10 12 10 10 10 10 11 10 10 11 12 13 15 16 17 19 20 19 20 21 24 25 25
39 40 41 37 33 28 20 13 13 15 20 21 17 15 13 11 11 10 9 10 9 9 9 10 10 10 11 11 11 10 12 13 14 15 18 20 20 19 20 23 26 27 27
45 44 43 41 38 33 26 23 16 13 16 19 17 14 13 12 12 12 11 11 10 9 8 8 9 10 11 11 11 11 13 15 15 16 18 18 19 20 22 24 28 29 33
46 48 45 42 40 37 32 27 22 16 13 15 16 15 13 11 13 14 13 13 12 11 10 9 8 10 12 13 12 13 15 16 15 16 18 20 21 20 23 29 31 35 41
34 39 45 43 41 39 37 33 27 22 15 13 11 10 10 13 14 16 15 15 14 14 13 12 11 12 14 14 14 14 16 16 18 17 20 20 22 21 23 31 39 40 38
36 36 42 42 42 40 38 35 32 26 21 14 17 19 14 16 19 18 17 17 16 15 14 13 12 14 16 15 14 16 17 17 18 17 20 22 21 20 18 32 42 45 44
37 38 39 38 40 42 41 38 34 30 25 19 17 21 25 23 22 20 20 18 18 17 17 15 13 15 14 13 14 15 16 16 17 18 19 22 23 20 10 17 60 46 42
35 38 38 37 37 40 39 38 38 32 28 24 19 22 23 24 24 23 21 19 18 17 18 16 17 17 15 13 13 15 15 17 18 19 19 22 24 21 12 11 35 35 31
32 34 38 38 36 40 37 37 38 36 31 26 24 21 25 26 25 24 21 18 17 15 16 16 18 19 17 16 15 15 15 15 15 16 18 27 29 23 20 29 16 18 23
30 34 35 38 37 42 38 36 37 34 31 24 21 19 24 29 26 24 21 20 17 17 16 18 20 22 20 20 18 17 16 17 15 14 19 23 29 27 25 29 30 31 30
31 33 33 36 39 43 37 37 34 32 28 30 25 19 16 25 27 25 21 21 18 18 19 19 24 24 23 21 20 16 15 13 15 19 25 26 28 32 33 36 36 34 33
29 32 33 34 37 40 39 40 36 26 34 30 27 24 21 18 22 27 25 23 19 19 18 26 29 27 26 26 21 15 14 15 17 19 20 23 40 37 40 43 40 37 36
30 33 33 37 38 37 39 42 42 38 40 37 31 28 24 19 15 25 26 24 21 22 24 25 25 25 22 28 27 21 19 18 22 21 24 25 39 48 48 47 44 39 36
30 33 34 34 35 35 35 34 31 36 25 31 32 33 30 24 22 14 26 27 23 25 27 30 34 22 13 32 10 13 2 8 21 22 23 25 41 46 45 44 43 40 35
29 35 33 33 34 33 38 36 36 32 31 23 42 41 37 34 27 21 17 30 27 29 32 35 36 33 21 26 23 9 3 3 4 16 20 36 35 45 42 41 41 38 35
28 31 36 36 34 35 37 35 32 28 29 34 32 37 40 35 29 24 19 28 32 32 34 35 38 36 29 26 24 13 8 28 4 2 13 31 36 38 39 37 36 35 33
28 29 37 36 36 35 36 34 30 29 29 33 36 36 36 35 30 23 22 22 34 34 37 37 37 30 33 31 30 19 23 15 20 10 6 8 31 28 34 34 34 33 32
28 30 36 36 36 36 36 36 33 31 33 33 36 34 34 37 37 27 26 13 27 39 38 39 40 36 34 25 31 29 35 19 24 16 9 9 16 17 28 31 32 32 31
Wind_Direction
200 172 172 170 173 170 167 168 164 169 170 168 168 169 167 166 169 170 174 180 175 164 169 180 162 163 157 155 165 164 160 151 141 135 126 122 131 134 136 135 125 121 120
240 175 175 174 178 176 175 173 174 176 174 175 174 174 171 169 167 169 176 184 185 180 182 188 169 173 166 161 170 175 166 162 161 148 137 137 145 143 145 142 132 128 125
306 182 181 181 181 183 183 183 179 184 181 180 182 178 175 173 172 171 176 180 178 169 188 188 176 181 181 164 179 170 164 170 172 183 170 150 153 155 152 149 142 134 130
323 239 196 196 195 193 191 191 188 190 190 187 189 187 183 181 179 181 187 189 180 178 195 200 187 191 202 175 172 170 168 170 170 170 168 166 161 162 158 156 146 139 137
11 315 311 273 230 212 201 200 197 205 202 198 197 195 191 188 187 193 196 200 200 194 199 207 211 201 200 196 188 183 188 186 184 179 178 176 168 169 162 162 156 147 141
26 31 14 340 314 268 249 223 210 211 213 203 207 204 202 194 195 201 208 215 216 211 208 205 215 217 212 197 194 201 202 201 195 189 185 184 180 173 168 168 168 154 151
18 21 22 14 0 314 296 262 243 227 229 221 215 214 213 206 210 215 220 226 223 224 224 216 215 222 224 211 193 206 207 212 202 198 194 188 184 177 175 174 170 159 153
16 18 17 15 7 343 302 286 257 248 237 222 223 219 220 220 220 226 234 236 235 233 235 227 222 223 223 220 218 213 212 213 203 201 196 190 183 184 177 177 171 164 157
14 16 14 10 3 356 332 303 275 263 246 243 228 229 224 223 232 234 239 245 246 249 240 237 228 222 224 224 224 217 216 208 203 198 195 193 188 184 180 180 175 167 161
11 11 9 7 2 357 347 325 301 276 262 252 241 233 231 230 232 234 241 242 239 241 249 240 233 226 224 220 223 220 215 207 204 200 200 197 192 190 184 183 175 168 162
5 4 2 2 360 355 351 341 327 314 288 261 244 239 230 233 240 244 240 240 243 245 249 248 237 229 227 225 223 220 214 209 204 205 206 202 198 198 193 185 178 167 158
358 358 358 357 356 351 350 344 339 331 323 285 251 239 228 244 249 249 246 243 242 242 238 244 236 225 228 228 224 223 217 216 210 209 211 207 205 204 198 186 180 164 156
352 355 359 357 352 350 347 345 339 332 325 312 286 255 253 264 261 254 249 245 239 239 240 243 244 230 229 228 226 226 225 222 223 220 214 211 212 211 206 190 175 165 161
355 355 354 358 355 350 345 342 338 331 324 315 301 276 269 271 267 257 251 247 244 240 241 242 242 236 234 230 230 230 228 229 230 228 220 212 212 218 217 198 176 162 155
356 353 354 353 353 352 347 339 336 332 323 312 298 279 263 261 257 258 254 248 245 241 240 243 236 232 235 235 235 233 237 233 234 235 229 216 211 204 147 318 154 149 146
352 352 351 352 350 348 347 343 336 330 324 312 300 291 263 256 249 252 249 249 248 244 243 237 239 231 235 233 228 240 244 234 239 242 235 214 207 189 190 60 105 128 128
353 350 353 350 349 349 346 342 339 332 328 317 318 294 283 260 251 243 243 247 252 252 250 235 238 233 227 223 231 223 240 237 233 237 231 206 194 179 167 166 162 134 137
355 354 353 354 351 351 348 342 339 335 330 322 314 311 292 273 246 241 237 244 256 259 249 236 232 216 207 203 198 213 203 218 226 213 198 203 195 185 184 172 161 154 145
354 353 354 355 355 352 347 344 341 338 333 322 317 323 322 293 245 231 243 243 248 248 236 227 216 215 190 183 181 176 182 188 187 184 183 172 179 171 165 159 156 150 145
357 356 355 355 356 354 349 347 343 339 336 332 325 329 315 308 283 230 238 246 248 237 230 215 211 201 188 175 153 145 136 143 162 167 173 169 163 161 156 149 145 143 143
0 358 357 354 355 356 355 348 343 339 341 337 334 316 320 315 313 274 238 230 243 229 228 217 195 198 165 165 133 91 84 96 111 127 132 134 131 141 142 140 138 138 140
355 356 354 354 354 355 352 346 336 330 327 337 333 328 320 312 305 281 266 237 232 223 213 204 201 172 172 167 148 116 135 67 59 95 105 114 119 133 135 138 139 137 140
354 355 351 351 353 354 355 352 345 343 339 338 345 336 328 317 306 301 268 254 234 225 215 212 203 194 167 183 170 141 158 146 131 45 80 101 111 126 128 132 135 136 139
347 351 354 354 353 355 358 352 349 340 334 328 330 330 328 324 308 303 275 256 237 224 214 214 210 200 184 183 186 194 198 153 151 113 43 95 108 115 122 124 129 133 134
345 347 354 354 355 355 356 355 346 337 329 331 334 326 330 332 318 306 307 277 240 223 218 217 204 196 193 183 180 165 145 137 151 145 125 94 105 110 121 129 132 134 136
345 345 353 352 352 353 355 352 347 340 333 332 335 327 327 334 330 314 312 319 247 218 216 217 210 197 192 187 185 172 166 159 152 153 124 119 114 104 122 131 136 138 139